Weather History for PAAK - February, 2013

Change the Weather History Date:

Sunday, February 17, 2013

  Actual Average (PADK) Record (PADK)
Temperature  
Mean Temperature 40 °F -  
Max Temperature 46 °F 37 °F 48 °F (2009)
Min Temperature 33 °F 27 °F 15 °F (1971)
Degree Days  
Heating Degree Days 26    
Moisture  
Dew Point 36 °F    
Average Humidity 89    
Maximum Humidity 100    
Minimum Humidity 75    
Precipitation  
Precipitation 0.00 in - - ()
Sea Level Pressure  
Sea Level Pressure 29.60 in    
Wind  
Wind Speed 20 mph (ESE)    
Max Wind Speed 40 mph    
Max Gust Speed 53 mph    
Visibility 3 miles    
Events      
Averages and records for this station are not official NWS values.
T = Trace of Precipitation, MM = Missing Value Source: NWS Daily Summary

Daily Weather History Graph

Daily Weather History Graph

Search for Another Location

Airport or City:

Trip Planner

Search our weather history database for the weather conditions in past years. The results will help you decide how hot, cold, wet, or windy it might be!

Date:

Astronomy

Feb. 17, 2013 Rise Set
Actual Time 8:47 AM HST 6:55 PM HST
Civil Twilight 8:12 AM HST 7:30 PM HST
Nautical Twilight 7:32 AM HST 8:09 PM HST
Astronomical Twilight 6:53 AM HST 8:48 PM HST
Moon 11:49 AM HST (2/17) 3:02 AM HST (2/17)
Length of Visible Light 11h 17m
Length of Day
10h 08m
Waxing Crescent, 51% of the Moon is Illuminated
Feb 17
Waxing Crescent
Feb 25
Full
Mar 4
Last Quarter
Mar 11
New
Mar 19
First Quarter

Hourly Weather History & Observations

Time (HST) Temp. Windchill Dew Point Humidity Pressure Visibility Wind Dir Wind Speed Gust Speed Precip Events Conditions
12:16 AM 33.8 °F 22.5 °F 26.6 °F 75% 30.03 in 10.0 mi East 19.6 mph - N/A   Overcast
12:36 AM 33.8 °F 23.5 °F 28.4 °F 81% 30.02 in 10.0 mi East 16.1 mph - N/A   Overcast
12:56 AM 33.8 °F 22.5 °F 26.6 °F 75% 30.03 in 10.0 mi East 19.6 mph - N/A   Overcast
1:16 AM 33.8 °F 22.5 °F 28.4 °F 81% 30.02 in 10.0 mi East 19.6 mph - N/A   Overcast
1:36 AM 33.8 °F 22.2 °F 28.4 °F 81% 30.02 in 10.0 mi East 20.7 mph 24.2 mph N/A   Overcast
1:56 AM 33.8 °F 22.5 °F 28.4 °F 81% 30.02 in 10.0 mi East 19.6 mph 23.0 mph N/A   Overcast
2:16 AM 35.6 °F 24.0 °F 28.4 °F 75% 30.02 in 10.0 mi ESE 23.0 mph - N/A   Overcast
2:36 AM 35.6 °F 24.5 °F 28.4 °F 75% 30.03 in 10.0 mi ESE 20.7 mph - N/A   Overcast
2:56 AM 33.8 °F 21.3 °F 28.4 °F 81% 30.01 in 5.0 mi East 24.2 mph 27.6 mph N/A   Overcast
3:16 AM 33.8 °F 21.6 °F 28.4 °F 81% 30.00 in 2.5 mi ESE 23.0 mph 27.6 mph N/A   Overcast
3:36 AM 33.8 °F 21.9 °F 30.2 °F 87% 30.00 in 2.5 mi ESE 21.9 mph - N/A   Overcast
3:56 AM 33.8 °F 22.5 °F 30.2 °F 87% 30.00 in 2.5 mi East 19.6 mph - N/A   Overcast
4:16 AM 33.8 °F 22.5 °F 30.2 °F 87% 29.98 in 3.0 mi East 19.6 mph - N/A   Overcast
4:36 AM 33.8 °F 22.5 °F 30.2 °F 87% 29.97 in 2.0 mi East 19.6 mph - N/A   Overcast
4:56 AM 33.8 °F 22.2 °F 32.0 °F 93% 29.95 in 1.8 mi East 20.7 mph 25.3 mph N/A   Overcast
6:16 AM 33.8 °F 22.8 °F 32.0 °F 93% 29.93 in 3.0 mi East 18.4 mph 24.2 mph N/A   Overcast
6:36 AM 33.8 °F 22.8 °F 32.0 °F 93% 29.91 in 2.5 mi East 18.4 mph - N/A   Overcast
6:56 AM 35.6 °F 24.8 °F 33.8 °F 93% 29.90 in 5.0 mi East 19.6 mph 28.8 mph N/A   Overcast
7:16 AM 35.6 °F 25.9 °F 33.8 °F 93% 29.91 in 6.0 mi East 16.1 mph 23.0 mph N/A   Overcast
7:36 AM 35.6 °F 27.1 °F 33.8 °F 93% 29.90 in 4.0 mi ESE 12.7 mph - N/A   Overcast
7:56 AM 37.4 °F 27.5 °F 35.6 °F 93% 29.88 in 4.0 mi ESE 18.4 mph 21.9 mph N/A   Overcast
8:16 AM 37.4 °F 27.5 °F 35.6 °F 93% 29.87 in 4.0 mi ESE 18.4 mph 24.2 mph N/A   Overcast
8:36 AM 37.4 °F 28.9 °F 35.6 °F 93% 29.87 in 4.0 mi ESE 13.8 mph - N/A   Overcast
8:56 AM 37.4 °F 28.2 °F 35.6 °F 93% 29.86 in 2.5 mi SE 16.1 mph - N/A   Overcast
9:16 AM 37.4 °F 26.6 °F 35.6 °F 93% 29.85 in 2.0 mi SE 21.9 mph 27.6 mph N/A   Overcast
9:36 AM 37.4 °F 27.8 °F 35.6 °F 93% 29.85 in 1.8 mi SE 17.3 mph 24.2 mph N/A   Overcast
9:56 AM 37.4 °F 28.5 °F 37.4 °F 100% 29.85 in 1.8 mi SE 15.0 mph 21.9 mph N/A   Overcast
10:16 AM 39.2 °F 30.8 °F 37.4 °F 93% 29.84 in 2.0 mi SE 15.0 mph - N/A   Overcast
10:36 AM 39.2 °F 30.8 °F 37.4 °F 93% 29.83 in 1.8 mi SE 15.0 mph - N/A   Overcast
10:56 AM 39.2 °F 30.5 °F 37.4 °F 93% 29.82 in 1.5 mi SE 16.1 mph 20.7 mph N/A   Overcast
11:16 AM 39.2 °F 31.6 °F 37.4 °F 93% 29.81 in 1.2 mi SE 12.7 mph - N/A   Overcast
11:36 AM 39.2 °F 31.6 °F 37.4 °F 93% 29.80 in 1.2 mi SE 12.7 mph - N/A   Overcast
11:56 AM 39.2 °F 32.0 °F 37.4 °F 93% 29.77 in 1.5 mi SE 11.5 mph - N/A   Overcast
12:16 PM 39.2 °F 32.0 °F 37.4 °F 93% 29.76 in 0.8 mi SE 11.5 mph - N/A   Overcast
12:36 PM 39.2 °F 32.5 °F 37.4 °F 93% 29.74 in 0.8 mi SE 10.4 mph - N/A   Overcast
12:56 PM 39.2 °F 33.6 °F 37.4 °F 93% 29.73 in 0.8 mi ESE 8.1 mph - N/A   Overcast
1:16 PM 39.2 °F 33.0 °F 37.4 °F 93% 29.70 in 1.5 mi ESE 9.2 mph - N/A   Overcast
1:36 PM 39.2 °F 31.6 °F 37.4 °F 93% 29.68 in 2.0 mi East 12.7 mph - N/A   Overcast
1:56 PM 39.2 °F 31.2 °F 37.4 °F 93% 29.65 in 1.5 mi ESE 13.8 mph 17.3 mph N/A   Overcast
2:16 PM 39.2 °F 31.6 °F 37.4 °F 93% 29.62 in 0.8 mi East 12.7 mph - N/A   Overcast
2:36 PM 39.2 °F 30.5 °F 39.2 °F 100% 29.59 in 1.0 mi East 16.1 mph - N/A   Overcast
2:56 PM 39.2 °F 31.2 °F 37.4 °F 93% 29.56 in 1.8 mi East 13.8 mph - N/A   Overcast
3:16 PM 39.2 °F 30.5 °F 39.2 °F 100% 29.54 in 2.0 mi East 16.1 mph 19.6 mph N/A   Overcast
3:36 PM 39.2 °F 30.8 °F 37.4 °F 93% 29.50 in 3.0 mi East 15.0 mph - N/A   Overcast
3:56 PM 41.0 °F 33.5 °F 41.0 °F 100% 29.47 in - ESE 13.8 mph - N/A   Unknown
4:16 PM 41.0 °F 32.5 °F 39.2 °F 93% 29.43 in 2.5 mi East 17.3 mph - N/A   Overcast
4:36 PM 42.8 °F 33.8 °F 39.2 °F 87% 29.39 in 3.0 mi East 21.9 mph 28.8 mph N/A   Overcast
4:56 PM 42.8 °F 33.1 °F 39.2 °F 87% 29.36 in 2.5 mi ESE 25.3 mph 29.9 mph N/A   Overcast
5:16 PM 42.8 °F 33.3 °F 39.2 °F 87% 29.31 in 3.0 mi ESE 24.2 mph 27.6 mph N/A   Overcast
5:36 PM 42.8 °F 32.9 °F 39.2 °F 87% 29.28 in 3.0 mi ESE 26.5 mph 35.7 mph N/A   Overcast
5:56 PM 42.8 °F 32.5 °F 39.2 °F 87% 29.26 in 2.5 mi ESE 28.8 mph 42.6 mph N/A   Overcast
6:16 PM 42.8 °F 33.3 °F 39.2 °F 87% 29.20 in 2.5 mi ESE 24.2 mph 32.2 mph N/A   Overcast
6:36 PM 42.8 °F 33.1 °F 39.2 °F 87% 29.18 in 1.8 mi ESE 25.3 mph 39.1 mph N/A   Overcast
6:56 PM 44.6 °F 34.9 °F 39.2 °F 81% 29.15 in 1.0 mi SE 28.8 mph 36.8 mph N/A   Overcast
7:16 PM 44.6 °F 35.3 °F 41.0 °F 87% 29.13 in 1.8 mi SE 26.5 mph 36.8 mph N/A   Overcast
7:36 PM 44.6 °F 36.6 °F 39.2 °F 81% 29.12 in 1.5 mi SE 19.6 mph 27.6 mph N/A   Overcast
7:56 PM 44.6 °F 36.1 °F 41.0 °F 87% 29.11 in 1.8 mi SE 21.9 mph 27.6 mph N/A   Overcast
8:16 PM 44.6 °F 37.2 °F 41.0 °F 87% 29.08 in 2.5 mi SE 17.3 mph 26.5 mph N/A   Overcast
8:36 PM 46.4 °F 37.9 °F 42.8 °F 87% 29.07 in 2.0 mi SSE 25.3 mph 36.8 mph N/A   Overcast
8:56 PM 46.4 °F 37.0 °F 42.8 °F 87% 29.06 in 2.0 mi SSE 31.1 mph 36.8 mph N/A   Overcast
9:16 PM 44.6 °F 34.9 °F 42.8 °F 93% 29.04 in 2.5 mi SSE 28.8 mph 39.1 mph N/A   Overcast
9:36 PM 44.6 °F 34.1 °F 42.8 °F 93% 29.03 in 2.5 mi SSE 34.5 mph 46.0 mph N/A   Overcast
9:56 PM 44.6 °F 34.2 °F 42.8 °F 93% 29.01 in 2.5 mi South 33.4 mph 51.8 mph N/A   Overcast
10:16 PM 42.8 °F 30.8 °F 41.0 °F 93% 29.01 in 2.5 mi South 40.3 mph 52.9 mph N/A   Overcast
10:36 PM 42.8 °F 30.8 °F 41.0 °F 93% 29.02 in 5.0 mi South 40.3 mph 49.5 mph N/A   Overcast
10:56 PM 42.8 °F 31.6 °F 39.2 °F 87% 29.03 in 3.0 mi South 34.5 mph 47.2 mph N/A   Overcast
11:16 PM 42.8 °F 31.9 °F 39.2 °F 87% 29.04 in 5.0 mi South 32.2 mph 50.6 mph N/A   Overcast
11:36 PM 41.0 °F 29.0 °F 37.4 °F 87% 29.04 in 5.0 mi South 35.7 mph 46.0 mph N/A   Overcast
11:56 PM 41.0 °F 29.1 °F 37.4 °F 87% 29.07 in 5.0 mi South 34.5 mph 47.2 mph N/A   Overcast